Location: Key Biscayne
(25.6930°N, 80.1630°W)
Time: 10:46:22
(UTC-04:00)

CZ-2D R/B - Visible Passes

Search period start: 23 April 2014 00:00
Search period end: 03 May 2014 00:00
Orbit: 538 x 556 km, 97.6° (Epoch: 22 April)

Date Brightness Start Highest point End Pass type
(mag) Time Alt. Az. Time Alt. Az. Time Alt. Az.
23 Apr 3.7 21:03:57 11° S 21:07:39 62° W 21:11:31 10° NNW visible
24 Apr 3.4 20:58:42 10° S 21:02:31 75° WSW 21:06:24 10° NNW visible
25 Apr 3.2 20:53:30 10° SSE 20:57:22 90° W 21:01:16 10° NNW visible
26 Apr 3.2 20:48:21 10° SSE 20:52:12 76° ENE 20:56:06 10° N visible
27 Apr 3.3 20:43:13 10° SSE 20:47:02 63° ENE 20:50:53 10° N visible
28 Apr 3.4 20:38:05 10° SSE 20:41:51 52° ENE 20:45:39 10° N visible
29 Apr 3.7 20:32:59 10° SSE 20:36:40 43° ENE 20:40:23 10° N visible
30 Apr 3.9 20:27:54 10° SE 20:31:29 36° ENE 20:35:05 10° N visible
01 May 4.2 20:22:50 10° SE 20:26:16 31° ENE 20:29:44 10° NNE visible
01 May 6.3 21:59:50 10° WSW 22:00:56 11° W 22:02:02 10° WNW visible
02 May 4.4 20:17:48 10° SE 20:21:04 26° ENE 20:24:21 10° NNE visible
02 May 6.2 21:53:47 10° SW 21:55:40 13° W 21:57:33 10° WNW visible
